Snowfall_Accumulation
0.2 0.2 0.1 0.1 0.3 0.3 0.2 0.1 0.1 0.1 0.1 0.1 0.1 0.1 0.1 0.1 0.1 0.2 0.2 0.3 0.7 0.7 0.7 0.6 0.9 0.8 0.3 0.3 0.2 0.3 0.3 0.3 0.3 0.3 0.5 0.8 1.3 1.5 1.9 2.2 2.5 3.1
0.1 0.1 0.1 0.1 0.1 0.1 0.1 0.1 0.1 0.2 0.2 0.1 0.1 0.1 0.1 0.1 0.1 0.1 0.2 0.3 0.3 0.3 0.3 0.6 0.4 0.8 0.7 0.7 0.6 0.7 0.7 0.6 0.7 0.4 0.6 0.7 0.9 1.0 1.2 1.3 1.7 2.0
0.1 0.1 0.1 0.1 0.1 0.1 0.1 0.1 0.2 0.1 0.1 0.1 0.1 0.1 0.2 0.1 0.2 0.2 0.3 0.4 0.5 0.8 0.6 1.0 0.8 0.8 1.1 0.9 0.4 0.6 0.7 0.8 0.9 0.8 1.0 0.9 0.8 0.9 1.0 1.0 1.3 1.7
0.1 0.0 0.1 0.1 0.1 0.2 0.1 0.1 0.1 0.2 0.1 0.1 0.1 0.2 0.2 0.3 0.3 0.4 0.5 0.6 0.7 0.7 0.8 0.8 0.8 0.8 1.0 0.6 1.5 1.3 1.3 1.1 1.0 1.0 1.0 1.3 1.2 1.1 1.0 1.0 1.2 1.4
0.1 0.1 0.1 0.1 0.1 0.1 0.2 0.1 0.2 0.1 0.2 0.2 0.3 0.2 0.4 0.4 0.6 0.8 0.9 1.0 0.9 1.0 1.8 1.3 1.1 1.0 0.8 0.7 0.8 1.2 0.8 0.8 0.6 0.7 1.0 1.3 1.3 1.3 1.2 1.4 1.6 1.7
0.1 0.1 0.1 0.1 0.1 0.3 0.4 0.3 0.2 0.4 0.9 0.6 0.5 0.4 0.6 0.6 0.8 0.8 0.9 1.1 1.1 1.1 1.2 2.8 1.6 1.3 1.6 0.9 0.8 0.7 0.8 0.7 0.8 0.7 0.8 0.9 0.9 1.0 1.3 1.5 1.8 1.8
0.2 0.1 0.1 0.2 0.2 0.3 0.3 0.4 0.6 0.9 0.6 0.7 1.1 1.2 0.6 0.6 0.6 0.8 1.0 1.1 1.2 1.2 1.2 1.7 1.3 1.5 1.0 1.0 1.2 1.1 1.2 1.0 1.0 1.0 1.1 1.0 1.1 1.0 1.0 1.6 1.8 1.9
0.2 0.2 0.3 0.2 0.3 0.4 0.4 0.6 1.3 1.3 1.2 0.9 1.4 0.6 1.0 0.8 0.9 1.0 1.1 1.2 1.4 1.4 1.3 1.3 1.9 1.7 1.3 1.4 1.5 1.3 1.3 1.4 1.7 2.1 1.7 1.7 1.4 1.5 1.3 1.4 1.8 2.3
0.3 0.3 0.4 0.5 0.6 0.7 1.1 1.3 1.0 1.1 1.1 1.0 0.9 0.9 1.0 1.2 1.3 1.4 1.4 1.5 1.6 1.5 1.5 1.8 1.9 2.0 1.7 2.2 2.5 2.5 2.3 2.0 1.9 2.0 2.0 2.0 1.9 1.8 1.7 1.7 2.1 2.5
0.7 0.7 0.7 0.8 1.2 1.0 0.8 0.8 1.6 0.9 1.0 1.0 1.2 1.3 1.4 1.3 1.4 1.4 1.6 1.6 1.9 2.0 2.4 1.9 2.1 1.8 2.0 2.4 2.5 2.4 2.9 3.2 2.8 2.5 2.6 2.7 3.0 2.8 2.6 2.8 3.0 3.3
0.7 0.7 0.8 0.9 0.9 0.9 0.9 0.9 1.5 1.0 1.0 1.8 1.5 1.9 2.7 1.9 1.8 1.5 1.8 2.0 2.0 1.8 1.7 1.6 1.7 1.7 1.9 2.0 2.1 2.2 2.5 2.7 2.9 3.2 3.2 3.2 3.2 3.5 4.0 4.2 4.2 4.2
0.7 0.7 0.7 0.8 0.9 1.2 1.0 0.9 1.0 1.2 1.4 1.8 2.5 1.6 2.1 1.9 2.2 2.1 2.2 2.1 2.0 2.0 1.9 2.3 2.0 2.0 2.1 2.5 2.1 1.9 2.0 2.2 2.5 2.6 2.6 2.9 3.1 3.4 3.5 3.9 4.6 4.5
0.6 0.7 0.7 0.8 0.9 1.0 1.1 1.3 1.3 1.2 1.4 1.7 1.8 2.2 2.7 2.8 2.9 2.5 2.4 2.3 2.3 2.3 2.3 2.3 2.3 2.1 2.2 2.1 2.1 2.2 2.4 2.5 2.6 2.5 2.5 2.4 2.6 2.7 2.7 3.1 3.5 3.7
0.8 0.8 0.8 0.9 1.1 1.9 1.3 1.4 1.5 1.7 1.9 1.9 2.4 2.7 3.3 3.3 3.5 2.9 2.6 2.5 2.7 2.8 2.5 2.4 2.6 2.6 2.5 2.4 2.4 2.5 2.7 3.0 2.7 3.1 3.3 3.2 3.0 2.8 2.7 3.0 2.9 3.0
0.6 0.7 0.8 1.3 1.2 1.6 1.7 1.8 1.9 2.3 2.1 2.5 3.0 3.6 3.2 3.3 3.5 3.3 3.3 3.5 2.9 2.9 3.3 2.8 3.1 3.0 2.7 2.9 3.1 3.2 3.6 4.7 4.5 4.9 4.9 5.0 4.6 4.1 3.7 3.5 3.3 3.3
0.8 1.1 1.5 2.0 2.0 2.3 2.0 1.9 1.9 2.2 2.8 2.7 3.4 3.6 3.7 3.1 3.4 3.6 4.1 5.5 4.0 3.7 3.5 3.9 3.7 3.4 3.0 3.0 4.1 6.7 8.7 9.7 10.3 10.1 9.6 9.3 9.0 8.2 6.9 5.6 4.9 4.2
1.3 1.8 1.8 2.0 2.0 1.9 2.0 2.3 2.5 2.7 3.0 3.5 3.6 3.7 4.2 4.7 4.4 5.1 4.9 4.8 4.7 4.8 5.2 4.9 4.7 4.0 3.4 4.5 8.4 11.4 13.5 15.2 14.3 12.4 10.5 9.9 9.2 8.6 7.7 5.8 4.7 4.0
1.7 1.7 1.9 2.1 2.2 2.4 2.6 3.0 3.0 3.5 3.8 3.9 4.8 4.5 4.9 4.9 6.0 6.3 5.1 4.9 5.1 5.4 5.8 5.5 5.5 4.3 4.6 8.4 10.6 14.6 19.7 19.2 17.3 15.4 13.3 11.6 10.3 9.6 8.5 7.5 6.5 5.7
1.9 2.3 2.6 2.6 2.8 3.6 3.1 3.6 4.0 4.3 4.4 4.7 5.0 5.1 5.6 6.5 7.1 6.1 6.1 6.1 6.3 7.3 6.7 6.3 6.3 5.1 6.1 9.6 12.0 17.0 21.8 24.4 20.2 16.7 14.6 12.1 10.1 9.0 8.2 7.4 6.8 7.3
2.3 2.8 3.2 3.2 3.4 3.4 3.7 4.1 4.6 5.1 5.1 5.6 5.7 5.9 6.9 7.4 7.1 7.5 7.4 8.1 8.5 8.9 8.7 8.3 7.9 6.7 7.0 11.6 16.0 19.1 24.4 27.8 22.1 18.9 16.1 13.6 11.2 9.4 8.0 7.1 6.5 6.6
2.9 3.6 4.2 3.7 3.6 3.6 4.1 4.5 5.0 5.2 5.3 5.7 6.4 7.1 8.1 9.0 8.9 9.2 9.3 9.7 9.9 11.0 11.0 10.8 9.1 7.6 10.2 15.3 17.8 20.6 24.9 30.0 24.9 21.0 17.1 13.4 10.5 9.1 8.5 7.8 6.9 6.4
3.4 3.9 3.9 4.1 4.1 4.5 5.3 5.6 5.4 5.6 6.6 6.3 7.1 7.6 8.1 8.6 8.1 8.2 8.7 8.9 8.6 9.4 10.4 10.3 8.0 7.4 11.6 15.8 17.5 21.0 27.2 25.9 25.2 20.6 16.6 13.0 10.4 8.8 7.9 6.9 6.3 6.5
3.9 4.3 4.6 4.6 4.8 5.4 5.6 5.7 5.9 5.9 5.9 6.1 7.5 7.0 6.9 6.7 7.0 6.7 7.0 8.0 8.2 8.3 8.8 8.1 7.4 7.1 9.1 14.4 16.0 19.9 28.9 30.4 26.4 20.3 16.0 13.1 10.2 8.6 7.8 7.0 6.3 6.2
3.9 4.5 5.4 5.4 5.7 6.0 5.7 5.3 5.1 5.3 5.8 5.8 7.2 7.2 7.1 6.8 6.6 7.0 7.0 7.3 8.1 8.3 8.1 8.5 7.5 6.5 7.9 11.9 14.7 18.7 25.9 27.4 25.4 22.9 18.1 14.3 12.0 9.9 8.9 8.3 6.7 6.6
4.4 4.6 5.2 5.8 6.2 5.8 5.5 5.7 5.6 5.8 5.7 6.1 6.7 6.8 6.9 6.2 6.6 7.2 6.9 7.0 7.1 7.2 7.0 8.1 7.8 6.6 6.5 10.3 13.3 19.6 23.4 24.1 23.0 21.3 19.4 15.3 13.4 12.1 9.7 8.1 6.7 5.8
4.4 5.0 5.3 6.0 6.4 5.8 5.4 5.6 5.7 6.0 5.8 6.4 6.3 6.0 6.2 5.8 5.9 6.0 6.3 6.3 6.3 7.4 7.8 7.6 7.7 7.0 6.8 7.5 15.0 21.6 21.9 20.9 21.2 21.7 21.2 18.2 15.8 13.7 13.3 11.3 8.8 7.6